Location: ??????
(41.3164°N, 22.6615°E)
Time: 18:32:08
(UTC+00:00)

CAS-4A - Pass Details

Date: 11 July 2022
Orbit: 521 x 537 km, 43.0° (Epoch: 11 August)

Event Time Altitude Azimuth Distance (km) Brightness Sun altitude
Exits shadow 01:36:52 17° 262° (W) 1,372 ? -13.8°
Maximum altitude 01:39:14 30° 211° (SSW) 946 ? -13.5°
Drops below altitude 10° 01:42:47 10° 149° (SSE) 1,752 ? -13.1°
Sets 01:45:10 0° 138° (SE) 2,641 ? -12.8°
